TimePST,TemperatureF,Dew PointF,Humidity,Sea Level PressureIn,VisibilityMPH,Wind Direction,Wind SpeedMPH,Gust SpeedMPH,PrecipitationIn,Events,Conditions,WindDirDegrees,DateUTC
12:35 AM,35.6,35.6,100,30.28,9.0,Calm,Calm,-,N/A,,Unknown,0,2013-01-04 08:35:00
12:55 AM,35.6,35.6,100,30.28,7.0,Calm,Calm,-,N/A,,Unknown,0,2013-01-04 08:55:00
1:15 AM,33.8,33.8,100,30.28,4.0,Calm,Calm,-,N/A,,Mist,0,2013-01-04 09:15:00
3:55 AM,32.0,32.0,100,30.28,5.0,Calm,Calm,-,N/A,,Clear,0,2013-01-04 11:55:00
4:15 AM,32.0,32.0,100,30.27,3.0,Calm,Calm,-,N/A,,Clear,0,2013-01-04 12:15:00
4:35 AM,32.0,32.0,100,30.27,6.0,Calm,Calm,-,N/A,,Clear,0,2013-01-04 12:35:00
4:55 AM,33.8,33.8,100,30.27,9.0,Calm,Calm,-,N/A,,Clear,0,2013-01-04 12:55:00
5:15 AM,33.8,33.8,100,30.28,10.0,Calm,Calm,-,N/A,,Clear,0,2013-01-04 13:15:00
5:35 AM,33.8,33.8,100,30.28,7.0,North,3.5,-,N/A,,Clear,360,2013-01-04 13:35:00
5:55 AM,33.8,33.8,100,30.29,6.0,Calm,Calm,-,N/A,,Clear,0,2013-01-04 13:55:00
6:15 AM,32.0,32.0,100,30.29,7.0,Calm,Calm,-,N/A,,Clear,0,2013-01-04 14:15:00
6:35 AM,32.0,32.0,100,30.29,7.0,Calm,Calm,-,N/A,,Clear,0,2013-01-04 14:35:00
6:55 AM,32.0,32.0,100,30.28,5.0,Calm,Calm,-,N/A,,Clear,0,2013-01-04 14:55:00
7:15 AM,32.0,32.0,100,30.28,4.0,SSW,4.6,-,N/A,,Clear,200,2013-01-04 15:15:00
7:35 AM,32.0,32.0,100,30.28,4.0,SSE,4.6,-,N/A,,Clear,160,2013-01-04 15:35:00
7:55 AM,32.0,32.0,100,30.29,4.0,Calm,Calm,-,N/A,,Clear,0,2013-01-04 15:55:00
8:15 AM,32.0,32.0,100,30.30,1.2,Calm,Calm,-,N/A,,Clear,0,2013-01-04 16:15:00
8:35 AM,33.8,33.8,100,30.31,3.0,Calm,Calm,-,N/A,,Clear,0,2013-01-04 16:35:00
8:55 AM,37.4,37.4,100,30.31,6.0,Calm,Calm,-,N/A,,Clear,0,2013-01-04 16:55:00
9:15 AM,37.4,37.4,100,30.32,7.0,Calm,Calm,-,N/A,,Clear,0,2013-01-04 17:15:00
9:35 AM,39.2,39.2,100,30.31,8.0,Calm,Calm,-,N/A,,Clear,0,2013-01-04 17:35:00
9:55 AM,42.8,42.8,100,30.31,10.0,Calm,Calm,-,N/A,,Clear,0,2013-01-04 17:55:00
10:15 AM,46.4,41.0,81,30.31,10.0,South,3.5,-,N/A,,Clear,190,2013-01-04 18:15:00
10:35 AM,48.2,39.2,71,30.31,10.0,Calm,Calm,-,N/A,,Clear,0,2013-01-04 18:35:00
10:55 AM,48.2,37.4,66,30.31,10.0,SE,3.5,-,N/A,,Clear,130,2013-01-04 18:55:00
11:15 AM,48.2,35.6,62,30.30,10.0,Calm,Calm,-,N/A,,Clear,0,2013-01-04 19:15:00
11:35 AM,50.0,37.4,62,30.28,10.0,SSE,3.5,-,N/A,,Clear,160,2013-01-04 19:35:00
11:55 AM,50.0,35.6,58,30.27,10.0,SE,3.5,-,N/A,,Clear,140,2013-01-04 19:55:00
12:15 PM,50.0,37.4,62,30.27,10.0,South,4.6,-,N/A,,Clear,180,2013-01-04 20:15:00
12:35 PM,51.8,37.4,58,30.25,10.0,South,5.8,-,N/A,,Clear,170,2013-01-04 20:35:00
12:55 PM,51.8,37.4,58,30.24,10.0,South,6.9,-,N/A,,Clear,190,2013-01-04 20:55:00
1:15 PM,53.6,37.4,54,30.24,10.0,South,4.6,-,N/A,,Clear,180,2013-01-04 21:15:00
1:35 PM,53.6,37.4,54,30.23,10.0,South,5.8,-,N/A,,Clear,190,2013-01-04 21:35:00
1:55 PM,53.6,37.4,54,30.22,10.0,South,5.8,-,N/A,,Clear,170,2013-01-04 21:55:00
2:15 PM,53.6,37.4,54,30.22,10.0,South,4.6,-,N/A,,Clear,180,2013-01-04 22:15:00
2:35 PM,53.6,39.2,58,30.21,10.0,South,9.2,-,N/A,,Clear,190,2013-01-04 22:35:00
2:55 PM,53.6,39.2,58,30.21,10.0,South,8.1,-,N/A,,Clear,180,2013-01-04 22:55:00
3:35 PM,53.6,39.2,58,30.21,10.0,South,5.8,-,N/A,,Clear,180,2013-01-04 23:35:00
3:55 PM,53.6,39.2,58,30.21,10.0,SSW,6.9,-,N/A,,Clear,200,2013-01-04 23:55:00
4:15 PM,53.6,39.2,58,30.21,10.0,SSW,8.1,-,N/A,,Clear,200,2013-01-05 00:15:00
4:35 PM,51.8,39.2,62,30.20,10.0,SSW,5.8,-,N/A,,Clear,200,2013-01-05 00:35:00
4:55 PM,50.0,41.0,71,30.20,10.0,SSW,5.8,-,N/A,,Clear,200,2013-01-05 00:55:00
5:15 PM,48.2,41.0,76,30.20,10.0,SSW,4.6,-,N/A,,Clear,200,2013-01-05 01:15:00
5:35 PM,46.4,41.0,81,30.21,10.0,SW,3.5,-,N/A,,Clear,220,2013-01-05 01:35:00
5:55 PM,46.4,41.0,81,30.21,10.0,South,5.8,-,N/A,,Clear,190,2013-01-05 01:55:00
6:15 PM,44.6,41.0,87,30.22,10.0,SSW,4.6,-,N/A,,Clear,210,2013-01-05 02:15:00
6:35 PM,42.8,41.0,93,30.22,10.0,SSW,4.6,-,N/A,,Clear,200,2013-01-05 02:35:00
6:55 PM,41.0,41.0,100,30.22,10.0,SSW,5.8,-,N/A,,Clear,200,2013-01-05 02:55:00
7:15 PM,41.0,41.0,100,30.22,10.0,South,6.9,-,N/A,,Clear,190,2013-01-05 03:15:00
7:35 PM,41.0,39.2,93,30.22,10.0,South,5.8,-,N/A,,Clear,180,2013-01-05 03:35:00
7:55 PM,41.0,41.0,100,30.22,10.0,SSW,5.8,-,N/A,,Clear,200,2013-01-05 03:55:00
8:15 PM,41.0,41.0,100,30.23,10.0,South,8.1,-,N/A,,Clear,190,2013-01-05 04:15:00
8:35 PM,41.0,41.0,100,30.23,10.0,South,6.9,-,N/A,,Clear,190,2013-01-05 04:35:00
8:55 PM,39.2,39.2,100,30.23,10.0,South,6.9,-,N/A,,Clear,180,2013-01-05 04:55:00
9:15 PM,39.2,39.2,100,30.24,10.0,SSW,5.8,-,N/A,,Clear,200,2013-01-05 05:15:00
9:35 PM,39.2,39.2,100,30.24,10.0,South,5.8,-,N/A,,Clear,190,2013-01-05 05:35:00
9:55 PM,39.2,39.2,100,30.24,10.0,South,5.8,-,N/A,,Clear,190,2013-01-05 05:55:00
10:15 PM,39.2,39.2,100,30.25,10.0,SSW,4.6,-,N/A,,Clear,200,2013-01-05 06:15:00
10:35 PM,39.2,39.2,100,30.25,10.0,South,4.6,-,N/A,,Clear,180,2013-01-05 06:35:00
10:55 PM,39.2,39.2,100,30.25,10.0,South,5.8,-,N/A,,Clear,180,2013-01-05 06:55:00
11:15 PM,39.2,39.2,100,30.25,10.0,South,5.8,-,N/A,,Clear,190,2013-01-05 07:15:00
11:35 PM,37.4,37.4,100,30.25,10.0,South,5.8,-,N/A,,Clear,190,2013-01-05 07:35:00
11:55 PM,39.2,39.2,100,30.24,10.0,South,5.8,-,N/A,,Clear,190,2013-01-05 07:55:00